カタログに戻る

GLOBALSTAR M088

運用中通信LEO
NORAD 37740·PAYLOAD·🇺🇸 United States

打ち上げ Jul 13, 2011 から Baikonur Cosmodrome

Loading…

次のパス (今後24時間)

TLE

最新Source: Space-Track

元期: Sep 14, 2026, 08:15 UTC

1 37740U 11033B   26257.34441450 -.00000104  00000-0 -97104-6 0  9990
2 37740  52.0243   7.6461 0000627  99.4855 294.0267 12.62270186699759

AllMySatでGLOBALSTAR M088をリアルタイム追跡

Download on the App Store